Location: Domont
(49.0278°N, 2.3264°E)
Time: 23:39:34
(UTC+00:00)

Cosmos 1758 - Pass Details

Date: 16 October 2021
Orbit: 539 x 560 km, 82.5° (Epoch: 27 November)

Event Time Altitude Azimuth Distance (km) Brightness Sun altitude
Rises 18:02:36 0° 193° (SSW) 2,706 7.0 -11.2°
Reaches altitude 10° 18:04:46 10° 196° (SSW) 1,814 6.2 -11.6°
Maximum altitude 18:08:45 72° 281° (W) 579 3.6 -12.2°
Drops below altitude 10° 18:12:44 10° 6° (N) 1,819 5.9 -12.9°
Sets 18:14:55 0° 9° (N) 2,715 6.8 -13.3°
